This is the latest recevied weather packets stored in our database for station/object 4S6DRJ-13. If no packets are shown the sender has not sent any weather packets the latest 1 day(s).
| Time | Temp. | Humidity | Pressure | Rain* | Wind** | Luminosity | Snow |
|---|---|---|---|---|---|---|---|
| 1778133277 | 33.89° C | 60% | 1004.6 hPa | 0 mm | 1.34 m/s, 305° | 1117 W/m² | - |
| 1778133217 | 33.89° C | 62% | 1004.8 hPa | 0 mm | 0.89 m/s, 338° | 1119 W/m² | - |
| 1778133155 | 33.33° C | 62% | 1004.6 hPa | 0 mm | 0 m/s | 1116 W/m² | - |
| 1778133094 | 33.33° C | 62% | 1004.8 hPa | 0 mm | 0 m/s | 1115 W/m² | - |
| 1778132972 | 33.33° C | 63% | 1004.9 hPa | 0 mm | 0.45 m/s, 29° | 1114 W/m² | - |
| 1778132911 | 32.78° C | 63% | 1004.8 hPa | 0 mm | 0 m/s | 1111 W/m² | - |
| 1778132850 | 32.78° C | 64% | 1004.7 hPa | 0 mm | 0.45 m/s, 223° | 1114 W/m² | - |
| 1778132789 | 32.78° C | 64% | 1004.8 hPa | 0 mm | 0.45 m/s, 221° | 1113 W/m² | - |
| 1778132728 | 32.78° C | 64% | 1004.9 hPa | 0 mm | 0.89 m/s, 230° | 1115 W/m² | - |
| 1778132606 | 32.78° C | 65% | 1004.9 hPa | 0 mm | 0.89 m/s, 200° | 1116 W/m² | - |
| 1778132545 | 32.78° C | 64% | 1004.8 hPa | 0 mm | 1.79 m/s, 235° | 1115 W/m² | - |
| 1778132484 | 32.78° C | 65% | 1005 hPa | 0 mm | 1.79 m/s, 226° | 1116 W/m² | - |
| 1778132301 | 32.78° C | 65% | 1005 hPa | 0 mm | 0.45 m/s, 319° | 240 W/m² | - |
| 1778132240 | 32.78° C | 65% | 1004.8 hPa | 0 mm | 0.45 m/s, 264° | 255 W/m² | - |
| 1778132180 | 32.78° C | 64% | 1004.8 hPa | 0 mm | 0.89 m/s, 256° | 280 W/m² | - |
| 1778131996 | 32.78° C | 65% | 1005 hPa | 0 mm | 1.79 m/s, 213° | 1112 W/m² | - |
| 1778131935 | 32.78° C | 64% | 1005 hPa | 0 mm | 0.45 m/s, 233° | 1111 W/m² | - |
| 1778131630 | 33.33° C | 64% | 1005.1 hPa | 0 mm | 0.45 m/s, 242° | 663 W/m² | - |
| 1778131569 | 33.33° C | 65% | 1005.1 hPa | 0 mm | 0.45 m/s, 230° | 302 W/m² | - |
| 1778131508 | 32.78° C | 65% | 1005 hPa | 0 mm | 1.34 m/s, 286° | 327 W/m² | - |
| 1778131447 | 32.78° C | 66% | 1005 hPa | 0 mm | 0.45 m/s, 206° | 874 W/m² | - |
| 1778131386 | 32.78° C | 67% | 1005.1 hPa | 0 mm | 0 m/s | 1104 W/m² | - |
| 1778131325 | 32.78° C | 65% | 1005.1 hPa | 0 mm | 0.45 m/s, 256° | 1113 W/m² | - |
| 1778131264 | 32.78° C | 65% | 1005.2 hPa | 0 mm | 1.34 m/s, 158° | 1114 W/m² | - |
| 1778131203 | 32.78° C | 66% | 1005.3 hPa | 0 mm | 0.89 m/s, 196° | 1113 W/m² | - |
* Rain latest hour (hover to see other rain measurements)
** Current wind speed in m/s (hover to see current wind gust speed)